Time,TemperatureF,DewpointF,PressureIn,WindDirection,WindDirectionDegrees,WindSpeedMPH,WindSpeedGustMPH,Humidity,HourlyPrecipIn,Conditions,Clouds,dailyrainin,SoftwareType,DateUTC
2013-01-03 00:05:00,1.4,-7.0,30.13,WNW,300,3.0,4.0,67,0.00,,,0.00,Wunderground v.1.15,2013-01-03 05:05:00,
2013-01-03 00:10:00,1.3,-7.1,30.13,NNE,19,2.0,2.0,67,0.00,,,0.00,Wunderground v.1.15,2013-01-03 05:10:00,
2013-01-03 00:20:00,1.3,-7.4,30.14,NNE,13,2.0,6.0,66,0.00,,,0.00,Wunderground v.1.15,2013-01-03 05:20:00,
2013-01-03 00:25:00,1.2,-7.2,30.15,NW,326,3.0,6.0,67,0.00,,,0.00,Wunderground v.1.15,2013-01-03 05:25:00,
2013-01-03 00:35:00,1.0,-7.4,30.14,West,279,1.0,4.0,67,0.00,,,0.00,Wunderground v.1.15,2013-01-03 05:35:00,
2013-01-03 00:40:00,1.0,-7.4,30.14,SSW,198,1.0,1.0,67,0.00,,,0.00,Wunderground v.1.15,2013-01-03 05:40:00,
2013-01-03 00:45:00,1.0,-7.4,30.14,SSW,192,2.0,4.0,67,0.00,,,0.00,Wunderground v.1.15,2013-01-03 05:45:00,
2013-01-03 00:55:00,0.9,-7.5,30.14,South,178,2.0,3.0,67,0.00,,,0.00,Wunderground v.1.15,2013-01-03 05:55:00,
2013-01-03 01:00:00,0.8,-7.6,30.14,WSW,254,1.0,2.0,67,0.00,,,0.00,Wunderground v.1.15,2013-01-03 06:00:00,
2013-01-03 01:05:00,0.8,-7.6,30.14,South,183,1.0,2.0,67,0.00,,,0.00,Wunderground v.1.15,2013-01-03 06:05:00,
2013-01-03 01:15:00,0.7,-7.7,30.14,WNW,288,3.0,3.0,67,0.00,,,0.00,Wunderground v.1.15,2013-01-03 06:15:00,
2013-01-03 01:25:00,0.6,-7.5,30.15,WSW,254,1.0,2.0,68,0.00,,,0.00,Wunderground v.1.15,2013-01-03 06:25:00,
2013-01-03 01:30:00,0.6,-7.5,30.15,WSW,252,2.0,2.0,68,0.00,,,0.00,Wunderground v.1.15,2013-01-03 06:30:00,
2013-01-03 01:40:00,0.5,-7.6,30.15,South,190,2.0,3.0,68,0.00,,,0.00,Wunderground v.1.15,2013-01-03 06:40:00,
2013-01-03 01:45:00,0.5,-5.3,30.15,SSW,198,1.0,3.0,76,0.00,,,0.00,Wunderground v.1.15,2013-01-03 06:45:00,
2013-01-03 01:50:00,0.5,-7.6,30.15,South,183,1.0,1.0,68,0.00,,,0.00,Wunderground v.1.15,2013-01-03 06:50:00,
2013-01-03 02:00:00,0.4,-7.7,30.15,South,187,1.0,1.0,68,0.00,,,0.00,Wunderground v.1.15,2013-01-03 07:00:00,
2013-01-03 02:05:00,0.4,-7.7,30.15,SSE,155,1.0,3.0,68,0.00,,,0.00,Wunderground v.1.15,2013-01-03 07:05:00,
2013-01-03 02:15:00,0.2,-7.6,30.16,SW,222,1.0,1.0,69,0.00,,,0.00,Wunderground v.1.15,2013-01-03 07:15:00,
2013-01-03 02:20:00,0.2,-7.6,30.16,South,188,1.0,2.0,69,0.00,,,0.00,Wunderground v.1.15,2013-01-03 07:20:00,
2013-01-03 02:30:00,0.3,-7.5,30.15,South,190,1.0,1.0,69,0.00,,,0.00,Wunderground v.1.15,2013-01-03 07:30:00,
2013-01-03 02:35:00,0.2,-7.6,30.15,SSW,212,1.0,2.0,69,0.00,,,0.00,Wunderground v.1.15,2013-01-03 07:35:00,
2013-01-03 02:45:00,0.1,-7.7,30.15,SE,128,2.0,2.0,69,0.00,,,0.00,Wunderground v.1.15,2013-01-03 07:45:00,
2013-01-03 02:50:00,0.1,-7.7,30.15,East,88,2.0,2.0,69,0.00,,,0.00,Wunderground v.1.15,2013-01-03 07:50:00,
2013-01-03 03:00:00,0.0,-7.8,30.15,North,351,1.0,1.0,69,0.00,,,0.00,Wunderground v.1.15,2013-01-03 08:00:00,
2013-01-03 03:05:00,0.0,-7.8,30.15,NNW,345,1.0,1.0,69,0.00,,,0.00,Wunderground v.1.15,2013-01-03 08:05:00,
2013-01-03 03:15:00,0.3,-7.5,30.15,NW,321,3.0,3.0,69,0.00,,,0.00,Wunderground v.1.15,2013-01-03 08:15:00,
2013-01-03 03:20:00,0.3,-7.5,30.15,NNE,13,3.0,3.0,69,0.00,,,0.00,Wunderground v.1.15,2013-01-03 08:20:00,
2013-01-03 03:30:00,0.4,-7.7,30.15,North,350,3.0,3.0,68,0.00,,,0.00,Wunderground v.1.15,2013-01-03 08:30:00,
2013-01-03 03:35:00,0.4,-7.7,30.14,SW,227,2.0,3.0,68,0.00,,,0.00,Wunderground v.1.15,2013-01-03 08:35:00,
2013-01-03 03:40:00,0.4,-7.7,30.14,West,261,2.0,2.0,68,0.00,,,0.00,Wunderground v.1.15,2013-01-03 08:40:00,
2013-01-03 03:50:00,0.4,-7.7,30.14,South,188,1.0,6.0,68,0.00,,,0.00,Wunderground v.1.15,2013-01-03 08:50:00,
2013-01-03 03:55:00,0.4,-7.7,30.14,South,182,1.0,6.0,68,0.00,,,0.00,Wunderground v.1.15,2013-01-03 08:55:00,
2013-01-03 04:05:00,0.4,-7.7,30.14,North,355,1.0,1.0,68,0.00,,,0.00,Wunderground v.1.15,2013-01-03 09:05:00,
2013-01-03 04:15:00,0.5,-7.6,30.13,West,259,1.0,1.0,68,0.00,,,0.00,Wunderground v.1.15,2013-01-03 09:15:00,
2013-01-03 04:20:00,0.5,-7.6,30.13,SSE,168,1.0,1.0,68,0.00,,,0.00,Wunderground v.1.15,2013-01-03 09:20:00,
2013-01-03 04:25:00,0.6,-7.8,30.13,West,268,1.0,1.0,67,0.00,,,0.00,Wunderground v.1.15,2013-01-03 09:25:00,
2013-01-03 04:35:00,0.6,-7.8,30.13,North,360,2.0,4.0,67,0.00,,,0.00,Wunderground v.1.15,2013-01-03 09:35:00,
2013-01-03 04:40:00,0.6,-7.8,30.13,NE,51,2.0,6.0,67,0.00,,,0.00,Wunderground v.1.15,2013-01-03 09:40:00,
2013-01-03 04:50:00,0.5,-7.6,30.13,NNW,336,2.0,2.0,68,0.00,,,0.00,Wunderground v.1.15,2013-01-03 09:50:00,
2013-01-03 04:55:00,0.4,-7.7,30.13,North,360,1.0,2.0,68,0.00,,,0.00,Wunderground v.1.15,2013-01-03 09:55:00,
2013-01-03 05:05:00,0.3,-7.8,30.13,SSE,148,2.0,2.0,68,0.00,,,0.00,Wunderground v.1.15,2013-01-03 10:05:00,
2013-01-03 05:15:00,0.3,-7.8,30.13,NNW,327,1.0,4.0,68,0.00,,,0.00,Wunderground v.1.15,2013-01-03 10:15:00,
2013-01-03 05:20:00,0.3,-7.8,30.13,WSW,248,1.0,1.0,68,0.00,,,0.00,Wunderground v.1.15,2013-01-03 10:20:00,
2013-01-03 05:25:00,0.3,-7.8,30.13,SSW,194,1.0,1.0,68,0.00,,,0.00,Wunderground v.1.15,2013-01-03 10:25:00,
2013-01-03 05:35:00,0.1,-8.0,30.14,NNW,336,0.0,1.0,68,0.00,,,0.00,Wunderground v.1.15,2013-01-03 10:35:00,
2013-01-03 05:40:00,0.2,-7.9,30.13,SSW,205,0.0,0.0,68,0.00,,,0.00,Wunderground v.1.15,2013-01-03 10:40:00,
2013-01-03 05:45:00,0.4,-7.7,30.13,East,88,1.0,1.0,68,0.00,,,0.00,Wunderground v.1.15,2013-01-03 10:45:00,
2013-01-03 05:55:00,0.4,-7.7,30.13,WNW,295,1.0,1.0,68,0.00,,,0.00,Wunderground v.1.15,2013-01-03 10:55:00,
2013-01-03 06:00:00,0.4,-7.7,30.14,North,360,1.0,3.0,68,0.00,,,0.00,Wunderground v.1.15,2013-01-03 11:00:00,
2013-01-03 06:05:00,0.4,-7.7,30.14,NNW,338,1.0,3.0,68,0.00,,,0.00,Wunderground v.1.15,2013-01-03 11:05:00,
2013-01-03 06:15:00,0.5,-7.9,30.14,NNW,342,2.0,3.0,67,0.00,,,0.00,Wunderground v.1.15,2013-01-03 11:15:00,
2013-01-03 06:25:00,0.7,-7.7,30.14,North,9,2.0,6.0,67,0.00,,,0.00,Wunderground v.1.15,2013-01-03 11:25:00,
2013-01-03 06:30:00,0.9,-7.5,30.14,NW,326,3.0,4.0,67,0.00,,,0.00,Wunderground v.1.15,2013-01-03 11:30:00,
2013-01-03 06:40:00,0.9,-7.5,30.14,SW,223,1.0,3.0,67,0.00,,,0.00,Wunderground v.1.15,2013-01-03 11:40:00,
2013-01-03 06:45:00,0.8,-7.6,30.15,WNW,303,1.0,4.0,67,0.00,,,0.00,Wunderground v.1.15,2013-01-03 11:45:00,
2013-01-03 06:50:00,0.8,-7.6,30.15,North,355,1.0,1.0,67,0.00,,,0.00,Wunderground v.1.15,2013-01-03 11:50:00,
2013-01-03 07:00:00,0.8,-7.6,30.16,WSW,254,2.0,2.0,67,0.00,,,0.00,Wunderground v.1.15,2013-01-03 12:00:00,
2013-01-03 07:05:00,0.8,-7.6,30.16,NNE,15,1.0,4.0,67,0.00,,,0.00,Wunderground v.1.15,2013-01-03 12:05:00,
2013-01-03 07:15:00,0.8,-7.6,30.16,North,5,2.0,2.0,67,0.00,,,0.00,Wunderground v.1.15,2013-01-03 12:15:00,
2013-01-03 07:20:00,0.6,-7.8,30.16,North,5,1.0,4.0,67,0.00,,,0.00,Wunderground v.1.15,2013-01-03 12:20:00,
2013-01-03 07:30:00,0.3,-8.1,30.16,NNW,331,1.0,1.0,67,0.00,,,0.00,Wunderground v.1.15,2013-01-03 12:30:00,
2013-01-03 07:35:00,0.2,-8.2,30.15,NNW,346,1.0,1.0,67,0.00,,,0.00,Wunderground v.1.15,2013-01-03 12:35:00,
2013-01-03 07:40:00,0.1,-8.0,30.15,SSE,152,1.0,1.0,68,0.00,,,0.00,Wunderground v.1.15,2013-01-03 12:40:00,
2013-01-03 07:50:00,0.0,-8.1,30.15,SE,144,0.0,0.0,68,0.00,,,0.00,Wunderground v.1.15,2013-01-03 12:50:00,
2013-01-03 07:55:00,0.2,-7.9,30.15,North,351,0.0,1.0,68,0.00,,,0.00,Wunderground v.1.15,2013-01-03 12:55:00,
2013-01-03 08:05:00,1.0,-7.4,30.14,NW,304,2.0,2.0,67,0.00,,,0.00,Wunderground v.1.15,2013-01-03 13:05:00,
2013-01-03 08:15:00,1.0,-7.7,30.13,North,360,2.0,3.0,66,0.00,,,0.00,Wunderground v.1.15,2013-01-03 13:15:00,
2013-01-03 08:20:00,1.1,-7.6,30.14,WNW,300,1.0,2.0,66,0.00,,,0.00,Wunderground v.1.15,2013-01-03 13:20:00,
2013-01-03 08:25:00,1.4,-7.3,30.14,NW,325,1.0,2.0,66,0.00,,,0.00,Wunderground v.1.15,2013-01-03 13:25:00,
2013-01-03 08:35:00,2.0,-6.8,30.13,NNE,25,1.0,1.0,66,0.00,,,0.00,Wunderground v.1.15,2013-01-03 13:35:00,
2013-01-03 08:40:00,2.3,-6.8,30.13,NNW,338,1.0,1.0,65,0.00,,,0.00,Wunderground v.1.15,2013-01-03 13:40:00,
2013-01-03 08:45:00,2.5,-6.9,30.13,North,355,2.0,6.0,64,0.00,,,0.00,Wunderground v.1.15,2013-01-03 13:45:00,
2013-01-03 08:55:00,3.1,-6.3,30.13,North,355,4.0,9.0,64,0.00,,,0.00,Wunderground v.1.15,2013-01-03 13:55:00,
2013-01-03 09:00:00,3.6,-6.2,30.13,NNW,339,4.0,4.0,63,0.00,,,0.00,Wunderground v.1.15,2013-01-03 14:00:00,
2013-01-03 09:05:00,3.9,-5.9,30.12,North,360,5.0,5.0,63,0.00,,,0.00,Wunderground v.1.15,2013-01-03 14:05:00,
2013-01-03 09:15:00,4.7,-5.5,30.13,North,360,5.0,5.0,62,0.00,,,0.00,Wunderground v.1.15,2013-01-03 14:15:00,
2013-01-03 09:25:00,5.3,-5.2,30.12,North,355,6.0,7.0,61,0.00,,,0.00,Wunderground v.1.15,2013-01-03 14:25:00,
2013-01-03 09:30:00,5.7,-5.2,30.12,North,360,5.0,9.0,60,0.00,,,0.00,Wunderground v.1.15,2013-01-03 14:30:00,
2013-01-03 09:35:00,5.9,-4.7,30.12,North,349,5.0,9.0,61,0.00,,,0.00,Wunderground v.1.15,2013-01-03 14:35:00,
2013-01-03 09:45:00,6.4,-4.5,30.12,NNE,23,5.0,5.0,60,0.00,,,0.00,Wunderground v.1.15,2013-01-03 14:45:00,
2013-01-03 09:50:00,6.6,-4.7,30.12,NNE,20,6.0,6.0,59,0.00,,,0.00,Wunderground v.1.15,2013-01-03 14:50:00,
2013-01-03 10:00:00,7.1,-4.6,30.12,NNW,341,6.0,6.0,58,0.00,,,0.00,Wunderground v.1.15,2013-01-03 15:00:00,
2013-01-03 10:05:00,7.4,-4.0,30.12,NW,317,5.0,6.0,59,0.00,,,0.00,Wunderground v.1.15,2013-01-03 15:05:00,
2013-01-03 10:15:00,8.3,-3.8,30.12,North,360,4.0,5.0,57,0.00,,,0.00,Wunderground v.1.15,2013-01-03 15:15:00,
2013-01-03 10:20:00,8.6,-3.5,30.12,North,360,4.0,4.0,57,0.00,,,0.00,Wunderground v.1.15,2013-01-03 15:20:00,
2013-01-03 10:25:00,9.0,-3.2,30.12,NNE,26,4.0,7.0,57,0.00,,,0.00,Wunderground v.1.15,2013-01-03 15:25:00,
2013-01-03 10:35:00,9.6,-3.0,30.12,North,355,5.0,5.0,56,0.00,,,0.00,Wunderground v.1.15,2013-01-03 15:35:00,
2013-01-03 10:40:00,9.8,-3.2,30.11,NNE,25,4.0,11.0,55,0.00,,,0.00,Wunderground v.1.15,2013-01-03 15:40:00,
2013-01-03 10:50:00,10.3,-2.7,30.11,North,355,3.0,3.0,55,0.00,,,0.00,Wunderground v.1.15,2013-01-03 15:50:00,
2013-01-03 10:55:00,10.9,-2.1,30.11,NNW,347,2.0,3.0,55,0.00,,,0.00,Wunderground v.1.15,2013-01-03 15:55:00,
2013-01-03 11:05:00,11.4,-2.4,30.11,NW,315,2.0,3.0,53,0.00,,,0.00,Wunderground v.1.15,2013-01-03 16:05:00,
2013-01-03 11:15:00,12.5,-1.8,30.11,East,91,1.0,1.0,52,0.00,,,0.00,Wunderground v.1.15,2013-01-03 16:15:00,
2013-01-03 11:20:00,12.8,-1.5,30.11,WNW,284,1.0,1.0,52,0.00,,,0.00,Wunderground v.1.15,2013-01-03 16:20:00,
2013-01-03 11:25:00,13.1,-1.3,30.10,SW,231,0.0,1.0,52,0.00,,,0.00,Wunderground v.1.15,2013-01-03 16:25:00,
2013-01-03 11:30:00,13.2,-1.6,30.10,WNW,288,1.0,1.0,51,0.00,,,0.00,Wunderground v.1.15,2013-01-03 16:30:00,
2013-01-03 11:40:00,13.5,-1.3,30.09,NW,322,1.0,1.0,51,0.00,,,0.00,Wunderground v.1.15,2013-01-03 16:40:00,
2013-01-03 11:45:00,13.5,-1.7,30.09,NNW,348,2.0,2.0,50,0.00,,,0.00,Wunderground v.1.15,2013-01-03 16:45:00,
2013-01-03 11:55:00,13.5,-1.7,30.09,NNW,327,2.0,2.0,50,0.00,,,0.00,Wunderground v.1.15,2013-01-03 16:55:00,
2013-01-03 12:00:00,13.6,-1.2,30.09,SSW,203,2.0,4.0,51,0.00,,,0.00,Wunderground v.1.15,2013-01-03 17:00:00,
2013-01-03 12:05:00,13.5,-1.7,30.09,WNW,297,2.0,4.0,50,0.00,,,0.00,Wunderground v.1.15,2013-01-03 17:05:00,
2013-01-03 12:15:00,13.6,-1.6,30.08,WSW,249,3.0,3.0,50,0.00,,,0.00,Wunderground v.1.15,2013-01-03 17:15:00,
2013-01-03 12:25:00,13.4,-1.4,30.08,NNW,342,2.0,3.0,51,0.00,,,0.00,Wunderground v.1.15,2013-01-03 17:25:00,
2013-01-03 12:30:00,13.1,-1.7,30.08,WNW,298,3.0,3.0,51,0.00,,,0.00,Wunderground v.1.15,2013-01-03 17:30:00,
2013-01-03 12:35:00,12.9,-1.4,30.08,NNW,337,3.0,3.0,52,0.00,,,0.00,Wunderground v.1.15,2013-01-03 17:35:00,
2013-01-03 12:45:00,12.9,-1.9,30.08,NNW,344,3.0,11.0,51,0.00,,,0.00,Wunderground v.1.15,2013-01-03 17:45:00,
2013-01-03 12:50:00,13.1,-1.3,30.08,NNE,16,2.0,2.0,52,0.00,,,0.00,Wunderground v.1.15,2013-01-03 17:50:00,
2013-01-03 13:00:00,13.4,-1.0,30.07,NNE,25,3.0,3.0,52,0.00,,,0.00,Wunderground v.1.15,2013-01-03 18:00:00,
2013-01-03 13:05:00,13.5,-1.3,30.07,NNW,340,3.0,7.0,51,0.00,,,0.00,Wunderground v.1.15,2013-01-03 18:05:00,
2013-01-03 13:15:00,13.6,-1.2,30.08,NNW,333,2.0,3.0,51,0.00,,,0.00,Wunderground v.1.15,2013-01-03 18:15:00,
2013-01-03 13:20:00,13.7,-1.1,30.08,NNE,26,2.0,3.0,51,0.00,,,0.00,Wunderground v.1.15,2013-01-03 18:20:00,
2013-01-03 13:25:00,13.6,-1.2,30.07,NW,322,3.0,3.0,51,0.00,,,0.00,Wunderground v.1.15,2013-01-03 18:25:00,
2013-01-03 13:35:00,13.5,-1.3,30.07,NNW,334,3.0,4.0,51,0.00,,,0.00,Wunderground v.1.15,2013-01-03 18:35:00,
2013-01-03 13:40:00,13.6,-1.2,30.07,NNE,25,2.0,2.0,51,0.00,,,0.00,Wunderground v.1.15,2013-01-03 18:40:00,
2013-01-03 13:50:00,13.8,-1.4,30.06,NW,309,2.0,5.0,50,0.00,,,0.00,Wunderground v.1.15,2013-01-03 18:50:00,
2013-01-03 13:55:00,13.9,-1.3,30.07,NNE,24,2.0,6.0,50,0.00,,,0.00,Wunderground v.1.15,2013-01-03 18:55:00,
2013-01-03 14:00:00,14.1,-1.6,30.06,NNE,14,3.0,3.0,49,0.00,,,0.00,Wunderground v.1.15,2013-01-03 19:00:00,
2013-01-03 14:05:00,14.3,-1.8,30.06,North,355,5.0,5.0,48,0.00,,,0.00,Wunderground v.1.15,2013-01-03 19:05:00,
2013-01-03 14:15:00,14.3,-1.8,30.05,NW,309,3.0,7.0,48,0.00,,,0.00,Wunderground v.1.15,2013-01-03 19:15:00,
2013-01-03 15:00:00,15.8,-0.9,30.04,NE,37,1.0,1.0,47,0.00,,,0.00,Wunderground v.1.15,2013-01-03 20:00:00,
2013-01-03 15:05:00,16.0,-1.2,30.04,North,349,1.0,1.0,46,0.00,,,0.00,Wunderground v.1.15,2013-01-03 20:05:00,
2013-01-03 15:15:00,16.0,-1.2,30.04,SW,215,2.0,3.0,46,0.00,,,0.00,Wunderground v.1.15,2013-01-03 20:15:00,
2013-01-03 15:20:00,16.1,-1.5,30.04,NW,326,2.0,2.0,45,0.00,,,0.00,Wunderground v.1.15,2013-01-03 20:20:00,
2013-01-03 15:30:00,15.9,-1.7,30.04,WNW,300,2.0,2.0,45,0.00,,,0.00,Wunderground v.1.15,2013-01-03 20:30:00,
2013-01-03 15:35:00,15.7,-1.4,30.04,North,9,1.0,2.0,46,0.00,,,0.00,Wunderground v.1.15,2013-01-03 20:35:00,
2013-01-03 15:40:00,15.6,-1.5,30.04,SW,224,1.0,2.0,46,0.00,,,0.00,Wunderground v.1.15,2013-01-03 20:40:00,
2013-01-03 15:50:00,15.2,-1.9,30.04,NNE,17,1.0,1.0,46,0.00,,,0.00,Wunderground v.1.15,2013-01-03 20:50:00,
2013-01-03 16:00:00,14.9,-1.7,30.03,NNE,26,1.0,1.0,47,0.00,,,0.00,Wunderground v.1.15,2013-01-03 21:00:00,
2013-01-03 16:05:00,14.8,-1.8,30.04,NNE,26,0.0,1.0,47,0.00,,,0.00,Wunderground v.1.15,2013-01-03 21:05:00,
2013-01-03 16:15:00,14.4,-1.7,30.03,SW,221,0.0,0.0,48,0.00,,,0.00,Wunderground v.1.15,2013-01-03 21:15:00,
2013-01-03 16:20:00,14.2,-1.9,30.03,SW,221,0.0,0.0,48,0.00,,,0.00,Wunderground v.1.15,2013-01-03 21:20:00,
2013-01-03 16:25:00,13.9,-1.8,30.03,SW,221,0.0,0.0,49,0.00,,,0.00,Wunderground v.1.15,2013-01-03 21:25:00,
2013-01-03 16:35:00,13.4,-2.2,30.03,SW,221,0.0,0.0,49,0.00,,,0.00,Wunderground v.1.15,2013-01-03 21:35:00,
2013-01-03 16:40:00,13.3,-1.9,30.03,SW,221,0.0,0.0,50,0.00,,,0.00,Wunderground v.1.15,2013-01-03 21:40:00,
2013-01-03 16:50:00,12.8,-1.5,30.04,SW,221,0.0,0.0,52,0.00,,,0.00,Wunderground v.1.15,2013-01-03 21:50:00,
2013-01-03 16:55:00,12.5,-1.0,30.04,SW,221,0.0,0.0,54,0.00,,,0.00,Wunderground v.1.15,2013-01-03 21:55:00,
2013-01-03 17:00:00,12.2,-0.9,30.04,SW,221,0.0,0.0,55,0.00,,,0.00,Wunderground v.1.15,2013-01-03 22:00:00,
2013-01-03 17:05:00,11.6,-0.7,30.04,SW,221,0.0,0.0,57,0.00,,,0.00,Wunderground v.1.15,2013-01-03 22:05:00,
2013-01-03 17:15:00,11.3,-1.8,30.04,SW,222,0.0,0.0,55,0.00,,,0.00,Wunderground v.1.15,2013-01-03 22:15:00,
2013-01-03 17:20:00,11.2,-0.7,30.04,SW,222,0.0,0.0,58,0.00,,,0.00,Wunderground v.1.15,2013-01-03 22:20:00,
2013-01-03 17:25:00,11.0,-0.5,30.04,SW,222,0.0,1.0,59,0.00,,,0.00,Wunderground v.1.15,2013-01-03 22:25:00,
2013-01-03 17:30:00,10.8,-0.7,30.04,SW,222,0.0,0.0,59,0.00,,,0.00,Wunderground v.1.15,2013-01-03 22:30:00,
2013-01-03 17:40:00,11.2,-1.5,30.05,NNE,17,0.0,2.0,56,0.00,,,0.00,Wunderground v.1.15,2013-01-03 22:40:00,
2013-01-03 17:45:00,12.0,-1.1,30.05,NNE,24,1.0,2.0,55,0.00,,,0.00,Wunderground v.1.15,2013-01-03 22:45:00,
2013-01-03 17:55:00,12.8,-1.1,30.05,North,355,2.0,2.0,53,0.00,,,0.00,Wunderground v.1.15,2013-01-03 22:55:00,
2013-01-03 18:00:00,12.5,-1.4,30.05,North,355,1.0,1.0,53,0.00,,,0.00,Wunderground v.1.15,2013-01-03 23:00:00,
2013-01-03 18:05:00,12.0,-1.1,30.05,North,355,0.0,1.0,55,0.00,,,0.00,Wunderground v.1.15,2013-01-03 23:05:00,
2013-01-03 18:15:00,11.6,-1.5,30.05,North,360,0.0,1.0,55,0.00,,,0.00,Wunderground v.1.15,2013-01-03 23:15:00,
2013-01-03 18:25:00,11.2,-1.5,30.04,NE,48,0.0,0.0,56,0.00,,,0.00,Wunderground v.1.15,2013-01-03 23:25:00,
2013-01-03 18:30:00,11.4,-1.7,30.04,NE,51,1.0,2.0,55,0.00,,,0.00,Wunderground v.1.15,2013-01-03 23:30:00,
2013-01-03 18:35:00,11.6,-1.5,30.04,NE,51,1.0,2.0,55,0.00,,,0.00,Wunderground v.1.15,2013-01-03 23:35:00,
2013-01-03 18:45:00,11.1,-0.5,30.04,NE,51,0.0,0.0,59,0.00,,,0.00,Wunderground v.1.15,2013-01-03 23:45:00,
2013-01-03 18:50:00,10.9,-0.6,30.04,NE,51,0.0,0.0,59,0.00,,,0.00,Wunderground v.1.15,2013-01-03 23:50:00,
2013-01-03 19:00:00,10.2,-0.6,30.04,NE,51,0.0,0.0,61,0.00,,,0.00,Wunderground v.1.15,2013-01-04 00:00:00,
2013-01-03 19:05:00,9.9,-0.2,30.04,NE,51,0.0,0.0,63,0.00,,,0.00,Wunderground v.1.15,2013-01-04 00:05:00,
2013-01-03 19:15:00,9.3,0.2,30.04,NE,51,0.0,0.0,66,0.00,,,0.00,Wunderground v.1.15,2013-01-04 00:15:00,
2013-01-03 19:20:00,9.0,-0.1,30.04,NE,51,0.0,0.0,66,0.00,,,0.00,Wunderground v.1.15,2013-01-04 00:20:00,
2013-01-03 19:25:00,8.7,0.0,30.05,NE,51,0.0,0.0,67,0.00,,,0.00,Wunderground v.1.15,2013-01-04 00:25:00,
2013-01-03 19:35:00,8.3,-0.1,30.04,NE,51,0.0,1.0,68,0.00,,,0.00,Wunderground v.1.15,2013-01-04 00:35:00,
2013-01-03 19:40:00,8.2,-0.5,30.05,NE,51,0.0,0.0,67,0.00,,,0.00,Wunderground v.1.15,2013-01-04 00:40:00,
2013-01-03 19:50:00,8.0,-0.4,30.04,NE,51,0.0,0.0,68,0.00,,,0.00,Wunderground v.1.15,2013-01-04 00:50:00,
2013-01-03 19:55:00,7.8,-0.6,30.04,NE,51,0.0,0.0,68,0.00,,,0.00,Wunderground v.1.15,2013-01-04 00:55:00,
2013-01-03 20:05:00,7.4,-0.3,30.04,NE,51,0.0,0.0,70,0.00,,,0.00,Wunderground v.1.15,2013-01-04 01:05:00,
2013-01-03 20:15:00,7.2,-0.5,30.04,NE,51,0.0,0.0,70,0.00,,,0.00,Wunderground v.1.15,2013-01-04 01:15:00,
2013-01-03 20:25:00,7.1,0.0,30.04,NE,51,0.0,0.0,72,0.00,,,0.00,Wunderground v.1.15,2013-01-04 01:25:00,
2013-01-03 20:30:00,6.9,-0.2,30.04,NE,51,0.0,0.0,72,0.00,,,0.00,Wunderground v.1.15,2013-01-04 01:30:00,
2013-01-03 20:40:00,6.7,0.5,30.03,NE,51,0.0,0.0,75,0.00,,,0.00,Wunderground v.1.15,2013-01-04 01:40:00,
2013-01-03 20:45:00,6.8,1.1,30.03,NE,51,0.0,0.0,77,0.00,,,0.00,Wunderground v.1.15,2013-01-04 01:45:00,
2013-01-03 20:50:00,6.9,0.9,30.03,NE,51,0.0,1.0,76,0.00,,,0.00,Wunderground v.1.15,2013-01-04 01:50:00,
2013-01-03 21:00:00,6.7,-0.1,30.04,NE,51,0.0,1.0,73,0.00,,,0.00,Wunderground v.1.15,2013-01-04 02:00:00,
2013-01-03 21:05:00,6.4,-0.1,30.03,NE,51,0.0,1.0,74,0.00,,,0.00,Wunderground v.1.15,2013-01-04 02:05:00,
2013-01-03 21:15:00,6.1,0.2,30.03,NE,51,0.0,0.0,76,0.00,,,0.00,Wunderground v.1.15,2013-01-04 02:15:00,
2013-01-03 21:20:00,5.9,0.0,30.03,NE,51,0.0,0.0,76,0.00,,,0.00,Wunderground v.1.15,2013-01-04 02:20:00,
2013-01-03 21:30:00,5.6,-0.3,30.03,NE,51,0.0,0.0,76,0.00,,,0.00,Wunderground v.1.15,2013-01-04 02:30:00,
2013-01-03 21:35:00,5.3,-0.9,30.03,NE,51,0.0,0.0,75,0.00,,,0.00,Wunderground v.1.15,2013-01-04 02:35:00,
2013-01-03 21:45:00,4.9,-0.7,30.03,NE,51,0.0,0.0,77,0.00,,,0.00,Wunderground v.1.15,2013-01-04 02:45:00,
2013-01-03 21:50:00,4.7,-0.9,30.03,NE,51,0.0,0.0,77,0.00,,,0.00,Wunderground v.1.15,2013-01-04 02:50:00,
2013-01-03 22:00:00,4.1,-1.5,30.03,NE,51,0.0,0.0,77,0.00,,,0.00,Wunderground v.1.15,2013-01-04 03:00:00,
2013-01-03 22:05:00,4.0,-1.3,30.03,NE,51,0.0,0.0,78,0.00,,,0.00,Wunderground v.1.15,2013-01-04 03:05:00,
2013-01-03 22:15:00,3.8,-1.3,30.03,NE,51,0.0,0.0,79,0.00,,,0.00,Wunderground v.1.15,2013-01-04 03:15:00,
2013-01-03 22:20:00,3.7,-1.4,30.03,NE,51,0.0,0.0,79,0.00,,,0.00,Wunderground v.1.15,2013-01-04 03:20:00,
2013-01-03 22:25:00,3.6,-1.5,30.03,NE,51,0.0,0.0,79,0.00,,,0.00,Wunderground v.1.15,2013-01-04 03:25:00,
2013-01-03 22:30:00,3.3,-1.7,30.03,NE,51,0.0,0.0,79,0.00,,,0.00,Wunderground v.1.15,2013-01-04 03:30:00,
2013-01-03 22:40:00,3.0,-1.5,30.02,NE,51,0.0,0.0,81,0.00,,,0.00,Wunderground v.1.15,2013-01-04 03:40:00,
2013-01-03 22:50:00,2.8,-1.4,30.02,NE,51,0.0,0.0,82,0.00,,,0.00,Wunderground v.1.15,2013-01-04 03:50:00,
2013-01-03 22:55:00,2.8,-1.4,30.02,NE,51,0.0,0.0,82,0.00,,,0.00,Wunderground v.1.15,2013-01-04 03:55:00,
2013-01-03 23:00:00,2.8,-1.4,30.01,NE,51,0.0,0.0,82,0.00,,,0.00,Wunderground v.1.15,2013-01-04 04:00:00,
2013-01-03 23:05:00,2.7,-1.5,30.01,NE,51,0.0,0.0,82,0.00,,,0.00,Wunderground v.1.15,2013-01-04 04:05:00,
2013-01-03 23:15:00,2.3,-1.9,30.01,NE,51,0.0,0.0,82,0.00,,,0.00,Wunderground v.1.15,2013-01-04 04:15:00,
2013-01-03 23:20:00,2.3,-1.7,30.00,NE,51,0.0,0.0,83,0.00,,,0.00,Wunderground v.1.15,2013-01-04 04:20:00,
2013-01-03 23:25:00,2.2,-1.5,30.00,NE,51,0.0,0.0,84,0.00,,,0.00,Wunderground v.1.15,2013-01-04 04:25:00,
2013-01-03 23:30:00,2.2,-1.5,30.00,NE,51,0.0,0.0,84,0.00,,,0.00,Wunderground v.1.15,2013-01-04 04:30:00,
2013-01-03 23:40:00,2.1,-1.6,29.99,NE,51,0.0,0.0,84,0.00,,,0.00,Wunderground v.1.15,2013-01-04 04:40:00,
2013-01-03 23:45:00,1.9,-1.6,30.00,NE,51,0.0,0.0,85,0.00,,,0.00,Wunderground v.1.15,2013-01-04 04:45:00,
2013-01-03 23:55:00,1.7,-1.8,29.99,NE,51,0.0,0.0,85,0.00,,,0.00,Wunderground v.1.15,2013-01-04 04:55:00,